Weather observations for the past three days for
Skagway
Imperial (Metric)
Date Time (akdt) Wind (mph) Vis. (mi.) Weather Sky Cond. Temperature (ºF) Relative Humidity Wind Chill (°F) Heat Index (°F) Pressure Precipitation (in)
Air Dwpt 6 hour altimeter (in) sea level (mb) 1 hr 3 hr 6 hr
Max. Min.
20 17:53 SW 8 10.00 Mostly Cloudy BKN100 66 57 73% 30.14 1020.6
20 16:53 SW 7 10.00 A Few Clouds FEW110 64.9 57 76% 30.15 1021.0
20 15:53 SW 16 10.00 A Few Clouds FEW075 62.1 55.9 68 54 80% 30.16 1021.1
20 14:53 SW 23 10.00 Mostly Cloudy and Breezy BKN075 66 57 73% 30.16 1021.4
20 13:53 SW 7 10.00 A Few Clouds FEW080 57 55 93% 30.18 1022.0
20 12:53 SW 7 10.00 Partly Cloudy SCT110 57 55 93% 30.19 1022.4
20 11:53 SW 5 10.00 Overcast BKN075 OVC100 55.9 55 97% 30.2 1022.7
20 10:53 SW 5 10.00 Overcast OVC075 55.9 55 97% 30.21 1022.9
20 09:53 SW 3 10.00 Overcast OVC075 55.9 55.9 61 51.1 100% 30.2 1022.7 0.02
20 08:53 Calm 10.00 Overcast OVC080 57.9 57 97% 30.2 1022.5
20 07:53 SW 3 0.15 Fog VV001 52 52 100% 30.2 1022.6
20 06:53 Calm 5.00 Fog/Mist SCT004 BKN080 OVC110 55 55 100% 30.19 1022.4 0.02
20 05:53 Calm 0.25 Fog VV002 54 54 100% 30.19 1022.3
20 04:53 Calm 0.75 Light Rain Fog/Mist FEW075 OVC090 53.1 53.1 100% 30.19 1022.3 0.02
20 02:53 NE 6 6.00 Fog/Mist OVC080 55 55 100% 30.17 1021.6
20 01:53 Calm 9.00 Mostly Cloudy BKN070 BKN095 55 55 100% 30.18 1021.9
20 00:53 NE 5 10.00 Overcast OVC075 55.9 55.9 100% 30.18 1022.1
19 23:53 Calm 9.00 Overcast FEW001 OVC075 54 54 100% 30.17 1021.8
19 22:53 Calm 10.00 Overcast BKN075 OVC090 57 57 100% 30.16 1021.3
19 21:53 Calm 10.00 Overcast OVC070 55.9 55.9 57.9 54 100% 30.16 1021.1
19 20:53 Calm 10.00 Overcast SCT060 OVC075 55 55 100% 30.14 1020.7
19 18:53 Calm 10.00 Light Rain OVC055 57 55 93% 30.13 1020.3
19 17:53 SW 3 10.00 Overcast OVC060 57 55 93% 30.12 1019.9
19 16:53 Calm 10.00 Overcast OVC060 57 54 90% 30.12 1019.9
19 15:53 Calm 10.00 Overcast OVC070 55.9 54 57.9 52 93% 30.11 1019.7 0.03
19 14:53 Calm 10.00 Overcast FEW048 BKN080 OVC100 55.9 54 93% 30.12 1019.9
19 13:53 W 3 10.00 Overcast FEW065 OVC085 57 54 90% 30.12 1020.0
19 12:53 SW 5 10.00 Light Rain OVC065 55.9 54 93% 30.12 1019.9 0.01 0.03
19 11:53 SW 7 10.00 Light Rain BKN075 OVC095 53.1 52 96% 30.1 1019.2 0.01
19 10:53 W 3 10.00 Light Rain OVC095 53.1 51.1 93% 30.07 1018.3 0.01
19 09:53 Calm 10.00 Overcast OVC090 54 51.1 57.9 50 90% 30.06 1017.9
19 08:53 Calm 10.00 Light Rain OVC100 57.9 54 87% 30.05 1017.6
19 07:53 NE 3 10.00 Mostly Cloudy BKN100 55 53.1 93% 30.05 1017.6
19 05:53 NE 5 10.00 Overcast OVC060 52 50 93% 30.06 1017.9
19 04:53 Calm 10.00 Fair CLR 50 48.9 96% 30.07 1018.1
19 03:53 Calm 10.00 A Few Clouds FEW065 50 50 57 50 100% 30.06 1018.1
19 02:53 NE 3 10.00 Mostly Cloudy BKN070 51.1 51.1 100% 30.07 1018.2
19 01:53 Calm 10.00 Partly Cloudy SCT065 52 51.1 97% 30.07 1018.3
19 00:53 Calm 10.00 Fair CLR 52 51.1 97% 30.07 1018.2
18 23:53 Calm 10.00 Fair CLR 54 52 93% 30.06 1018.0
18 22:53 N 3 10.00 Fair CLR 55.9 54 93% 30.06 1017.8
18 21:53 Calm 10.00 Fair CLR 57 53.1 63 57 87% 30.05 1017.5
18 20:53 Calm 10.00 Fair CLR 59 53.1 81% 30.04 1017.1
18 19:53 Calm 10.00 Fair CLR 61 52 72% 30.03 1016.8
18 18:53 W 5 10.00 Fair CLR 61 50 67% 30.02 1016.7
18 17:53 Vrbl 3 10.00 Fair CLR 60.1 51.1 72% 30.02 1016.7
18 16:53 W 13 10.00 Fair CLR 61 50 67% 30.03 1016.9
18 15:53 SW 20 10.00 Fair CLR 60.1 52 62.1 51.1 75% 30.02 1016.7
18 14:53 SW 18 10.00 Fair CLR 61 52 72% 30.02 1016.7
18 13:53 SW 17 10.00 Fair CLR 59 53.1 81% 30.02 1016.7
18 12:53 SW 13 10.00 Fair CLR 57 52 83% 30.02 1016.6
18 11:53 SW 14 10.00 Fair CLR 55 52 90% 30.02 1016.6
18 10:53 SW 7 10.00 Fair CLR 52 52 100% 30.02 1016.5
18 09:53 Vrbl 3 0.25 Fog BKN001 BKN014 52 52 54 50 100% 30.02 1016.6
18 08:53 SW 6 0.25 Fog BKN002 OVC009 51.1 51.1 100% 30.02 1016.7
18 07:53 Calm 0.50 Fog BKN006 OVC011 51.1 51.1 100% 30.01 1016.2
18 06:53 Calm 0.75 Fog/Mist OVC005 51.1 51.1 100% 30 1016.0
18 05:53 Calm 9.00 Overcast BKN006 OVC012 53.1 53.1 100% 30 1015.8
18 04:53 Calm 10.00 Overcast OVC010 53.1 53.1 100% 29.98 1015.3
18 03:53 Calm 10.00 Overcast FEW006 OVC014 54 54 55 52 100% 29.97 1014.9
18 01:53 Calm 2.50 Fog/Mist SCT010 OVC021 52 52 100% 29.96 1014.4
18 00:53 Calm 10.00 Overcast OVC018 54 54 100% 29.95 1014.1
17 23:53 Calm 10.00 Overcast BKN015 OVC020 54 53.1 97% 29.93 1013.5
17 22:53 Calm 10.00 Overcast OVC016 54 54 100% 29.92 1013.0
17 21:53 Calm 10.00 Overcast OVC017 54 54 55.9 51.1 100% 29.9 1012.6
17 20:53 Calm 10.00 Overcast FEW015 OVC065 55 53.1 93% 29.88 1011.9
17 19:53 N 5 10.00 Overcast FEW017 FEW049 OVC070 55 54 96% 29.87 1011.3
17 18:53 W 10 10.00 Overcast FEW032 BKN043 OVC075 55 52 90% 29.85 1010.9
Date Time (akdt) Wind (mph) Vis. (mi.) Weather Sky Cond. Air Dwpt Max. Min. Relative Humidity Wind Chill (°F) Heat Index (°F) altimeter (in) sea level (mb) 1 hr 3 hr 6 hr
6 hour
Temperature (ºF) Pressure Precipitation (in)